| time (UTC) | temp C | wind direction | speed KPH | gust KPH | rain 1hr cm | rain 24hr cm | rain mn cm | humidity % | barometer mb |
| 20260505153052 | 21 | 202 | 0.0 | 8.0 | 0.00 | 0.00 | 0.00 | 43 | 1014.0 |
| 20260505151547 | 21 | 145 | 0.0 | 11.3 | 0.00 | 0.00 | 0.00 | 44 | 1013.8 |
| 20260505124521 | 14 | 282 | 0.0 | 0.0 | 0.00 | 0.00 | 0.00 | 64 | 1013.7 |
| 20260505123021 | 13 | 282 | 0.0 | 0.0 | 0.00 | 0.00 | 0.00 | 69 | 1013.6 |
| 20260505121516 | 13 | 282 | 0.0 | 0.0 | 0.00 | 0.00 | 0.00 | 68 | 1013.5 |
| 20260505120016 | 12 | 282 | 0.0 | 0.0 | 0.00 | 0.00 | 0.00 | 67 | 1013.6 |
| 20260505114508 | 12 | 252 | 0.0 | 0.0 | 0.00 | 0.00 | 0.00 | 65 | 1013.3 |
| 20260505113005 | 12 | 253 | 0.0 | 0.0 | 0.00 | 0.00 | 0.00 | 64 | 1013.3 |
| 20260505111503 | 12 | 253 | 0.0 | 0.0 | 0.00 | 0.00 | 0.00 | 63 | 1013.0 |
| 20260505101558 | 13 | 253 | 0.0 | 0.0 | 0.00 | 0.00 | 0.00 | 60 | 1012.8 |
| 20260505100055 | 13 | 253 | 0.0 | 0.0 | 0.00 | 0.00 | 0.00 | 59 | 1012.8 |
| 20260505094559 | 13 | 253 | 0.0 | 0.0 | 0.00 | 0.00 | 0.00 | 58 | 1012.9 |
| 20260505093054 | 14 | 253 | 0.0 | 0.0 | 0.00 | 0.00 | 0.00 | 57 | 1013.0 |
| 20260505091545 | 15 | 253 | 0.0 | 0.0 | 0.00 | 0.00 | 0.00 | 56 | 1013.0 |
| 20260505090041 | 15 | 252 | 0.0 | 0.0 | 0.00 | 0.00 | 0.00 | 54 | 1012.8 |
| 20260505084539 | 15 | 252 | 0.0 | 0.0 | 0.00 | 0.00 | 0.00 | 52 | 1012.5 |
| 20260505083045 | 16 | 252 | 0.0 | 0.0 | 0.00 | 0.00 | 0.00 | 51 | 1012.3 |
| 20260505081535 | 16 | 252 | 0.0 | 0.0 | 0.00 | 0.00 | 0.00 | 51 | 1012.3 |
| 20260505080034 | 16 | 221 | 0.0 | 4.8 | 0.00 | 0.00 | 0.00 | 50 | 1012.2 |
| 20260505074533 | 16 | 234 | 0.0 | 4.8 | 0.00 | 0.00 | 0.00 | 49 | 1012.2 |
| 20260505073032 | 17 | 253 | 0.0 | 9.7 | 0.00 | 0.00 | 0.00 | 48 | 1012.2 |
| 20260505071533 | 17 | 211 | 0.0 | 0.0 | 0.00 | 0.00 | 0.00 | 49 | 1012.3 |
| 20260505070030 | 17 | 235 | 0.0 | 6.4 | 0.00 | 0.00 | 0.00 | 48 | 1012.3 |
| 20260505064529 | 17 | 259 | 0.0 | 6.4 | 0.00 | 0.00 | 0.00 | 48 | 1012.4 |
| 20260505063029 | 17 | 211 | 0.0 | 1.6 | 0.00 | 0.00 | 0.00 | 49 | 1012.3 |
| 20260505061534 | 17 | 238 | 0.0 | 3.2 | 0.00 | 0.00 | 0.00 | 49 | 1012.3 |
| 20260505060029 | 17 | 323 | 0.0 | 12.9 | 0.00 | 0.00 | 0.00 | 50 | 1012.2 |
| 20260505054540 | 16 | 227 | 0.0 | 8.0 | 0.00 | 0.00 | 0.00 | 51 | 1012.4 |
| 20260505053027 | 17 | 215 | 0.0 | 4.8 | 0.00 | 0.00 | 0.00 | 52 | 1012.4 |
| 20260505051525 | 16 | 259 | 0.0 | 4.8 | 0.00 | 0.00 | 0.00 | 52 | 1012.2 |
| 20260505041521 | 17 | 246 | 0.0 | 0.0 | 0.00 | 0.00 | 0.00 | 53 | 1012.1 |
| 20260505040035 | 17 | 247 | 0.0 | 0.0 | 0.00 | 0.00 | 0.00 | 52 | 1012.2 |
| 20260505034525 | 17 | 247 | 0.0 | 0.0 | 0.00 | 0.00 | 0.00 | 50 | 1012.2 |
| 20260505033017 | 18 | 247 | 0.0 | 0.0 | 0.00 | 0.00 | 0.00 | 49 | 1012.1 |
| 20260505031516 | 18 | 247 | 0.0 | 0.0 | 0.00 | 0.00 | 0.00 | 47 | 1012.3 |
| 20260505030017 | 18 | 248 | 0.0 | 0.0 | 0.00 | 0.00 | 0.00 | 46 | 1012.3 |
| 20260505024515 | 19 | 224 | 0.0 | 1.6 | 0.00 | 0.00 | 0.00 | 45 | 1012.4 |
| 20260505023014 | 19 | 238 | 0.0 | 0.0 | 0.00 | 0.00 | 0.00 | 44 | 1012.4 |
| 20260505021514 | 20 | 280 | 0.0 | 0.0 | 0.00 | 0.00 | 0.00 | 44 | 1012.4 |
| 20260505020014 | 20 | 272 | 0.0 | 0.0 | 0.00 | 0.00 | 0.00 | 43 | 1012.2 |
| 20260505014515 | 20 | 259 | 1.6 | 12.9 | 0.00 | 0.00 | 0.00 | 43 | 1012.2 |
| 20260505013012 | 20 | 235 | 0.0 | 0.0 | 0.00 | 0.00 | 0.00 | 44 | 1012.2 |
| 20260505011511 | 21 | 236 | 0.0 | 4.8 | 0.00 | 0.00 | 0.00 | 44 | 1012.0 |
| 20260505010010 | 21 | 211 | 0.0 | 8.0 | 0.00 | 0.00 | 0.00 | 43 | 1011.9 |
| 20260505004515 | 21 | 236 | 0.0 | 0.0 | 0.00 | 0.00 | 0.00 | 41 | 1011.7 |
| 20260505003010 | 22 | 266 | 0.0 | 1.6 | 0.00 | 0.00 | 0.00 | 40 | 1011.6 |
| 20260505001510 | 22 | 241 | 0.0 | 8.0 | 0.00 | 0.00 | 0.00 | 37 | 1011.6 |
| 20260505000009 | 22 | 205 | 0.0 | 6.4 | 0.00 | 0.00 | 0.00 | 37 | 1011.6 |
| 20260504234511 | 23 | 273 | 0.0 | 1.6 | 0.00 | 0.00 | 0.00 | 38 | 1011.5 |
| 20260504233008 | 23 | 213 | 0.0 | 0.0 | 0.00 | 0.00 | 0.00 | 38 | 1011.4 |
| 20260504231508 | 23 | 213 | 0.0 | 0.0 | 0.00 | 0.00 | 0.00 | 37 | 1011.4 |
| 20260504230007 | 23 | 223 | 0.0 | 0.0 | 0.00 | 0.00 | 0.00 | 37 | 1011.4 |
| 20260504224507 | 23 | 209 | 0.0 | 9.7 | 0.00 | 0.00 | 0.00 | 35 | 1011.5 |
| 20260504223009 | 23 | 231 | 0.0 | 8.0 | 0.00 | 0.00 | 0.00 | 33 | 1011.5 |
| 20260504221508 | 24 | 224 | 0.0 | 16.1 | 0.00 | 0.00 | 0.00 | 30 | 1011.5 |
| 20260504220014 | 25 | 247 | 1.6 | 16.1 | 0.00 | 0.00 | 0.00 | 29 | 1011.5 |
| 20260504214504 | 25 | 248 | 1.6 | 9.7 | 0.00 | 0.00 | 0.00 | 31 | 1011.7 |
| 20260504213003 | 25 | 321 | 0.0 | 9.7 | 0.00 | 0.00 | 0.00 | 32 | 1011.7 |
| 20260504211502 | 25 | 245 | 0.0 | 9.7 | 0.00 | 0.00 | 0.00 | 35 | 1011.9 |
| 20260504210106 | 25 | 183 | 0.0 | 12.9 | 0.00 | 0.00 | 0.00 | 34 | 1011.9 |
| 20260504204604 | 25 | 233 | 0.0 | 6.4 | 0.00 | 0.00 | 0.00 | 37 | 1012.1 |
| 20260504203057 | 25 | 164 | 0.0 | 4.8 | 0.00 | 0.00 | 0.00 | 37 | 1012.3 |
| 20260504201553 | 24 | 223 | 1.6 | 9.7 | 0.00 | 0.00 | 0.00 | 36 | 1012.4 |
| 20260504200053 | 24 | 308 | 0.0 | 11.3 | 0.00 | 0.00 | 0.00 | 37 | 1012.7 |
| 20260504194553 | 24 | 134 | 1.6 | 19.3 | 0.00 | 0.00 | 0.00 | 39 | 1012.8 |
| 20260504193100 | 25 | 287 | 0.0 | 11.3 | 0.00 | 0.00 | 0.00 | 38 | 1013.1 |
| 20260504191546 | 23 | 273 | 3.2 | 9.7 | 0.00 | 0.00 | 0.00 | 36 | 1013.3 |
| 20260504190051 | 24 | 181 | 0.0 | 4.8 | 0.00 | 0.00 | 0.00 | 38 | 1013.5 |
| 20260504184543 | 23 | 289 | 0.0 | 12.9 | 0.00 | 0.00 | 0.00 | 44 | 1013.8 |
| 20260504183054 | 24 | 215 | 0.0 | 6.4 | 0.00 | 0.00 | 0.00 | 38 | 1014.1 |
| 20260504181538 | 24 | 239 | 1.6 | 12.9 | 0.00 | 0.00 | 0.00 | 39 | 1014.2 |
| 20260504180054 | 23 | 197 | 3.2 | 17.7 | 0.00 | 0.00 | 0.00 | 36 | 1014.4 |
| 20260504174536 | 23 | 253 | 0.0 | 20.9 | 0.00 | 0.00 | 0.00 | 36 | 1014.5 |
| 20260504173032 | 23 | 267 | 0.0 | 12.9 | 0.00 | 0.00 | 0.00 | 40 | 1014.7 |
| 20260504171530 | 23 | 267 | 0.0 | 9.7 | 0.00 | 0.00 | 0.00 | 38 | 1014.9 |